Time,TemperatureF,DewpointF,PressureIn,WindDirection,WindDirectionDegrees,WindSpeedMPH,WindSpeedGustMPH,Humidity,HourlyPrecipIn,Conditions,Clouds,dailyrainin,SoftwareType,DateUTC
2013-05-08 00:00:00,57.8,54.6,29.91,WNW,296,0.0,0.0,89,0.00,,CLR,0.00,VWS V14.01,2013-05-08 04:00:00,
2013-05-08 00:01:00,57.8,54.6,29.91,WNW,296,0.0,0.0,89,0.00,,CLR,0.00,VWS V14.01,2013-05-08 04:01:00,
2013-05-08 00:06:00,57.6,54.4,29.91,WNW,296,0.0,0.0,89,0.00,,CLR,0.00,VWS V14.01,2013-05-08 04:06:00,
2013-05-08 00:11:00,57.5,54.3,29.91,WNW,296,0.0,0.0,89,0.00,,CLR,0.00,VWS V14.01,2013-05-08 04:11:00,
2013-05-08 00:16:00,57.5,54.6,29.91,WNW,296,0.0,0.0,90,0.00,,CLR,0.00,VWS V14.01,2013-05-08 04:16:00,
2013-05-08 00:21:00,57.3,54.1,29.91,WNW,296,0.0,0.0,89,0.00,,CLR,0.00,VWS V14.01,2013-05-08 04:21:00,
2013-05-08 00:26:00,57.1,54.2,29.91,WNW,296,0.0,0.0,90,0.00,,CLR,0.00,VWS V14.01,2013-05-08 04:26:00,
2013-05-08 00:31:00,57.0,54.1,29.91,WNW,296,0.0,0.0,90,0.00,,CLR,0.00,VWS V14.01,2013-05-08 04:31:00,
2013-05-08 00:36:00,56.9,54.3,29.91,WNW,296,0.0,0.0,91,0.00,,CLR,0.00,VWS V14.01,2013-05-08 04:36:00,
2013-05-08 00:41:00,56.8,54.2,29.91,WNW,296,0.0,0.0,91,0.00,,CLR,0.00,VWS V14.01,2013-05-08 04:41:00,
2013-05-08 00:46:00,56.8,53.9,29.91,WNW,296,0.0,0.0,90,0.00,,CLR,0.00,VWS V14.01,2013-05-08 04:46:00,
2013-05-08 00:51:00,56.7,53.8,29.91,WNW,296,0.0,0.0,90,0.00,,CLR,0.00,VWS V14.01,2013-05-08 04:51:00,
2013-05-08 00:56:00,56.5,53.6,29.90,WNW,296,0.0,0.0,90,0.00,,CLR,0.00,VWS V14.01,2013-05-08 04:56:00,
2013-05-08 01:01:00,56.3,53.7,29.90,WNW,296,0.0,0.0,91,0.00,,CLR,0.00,VWS V14.01,2013-05-08 05:01:00,
2013-05-08 01:06:00,56.1,53.8,29.90,WNW,296,0.0,0.0,92,0.00,,CLR,0.00,VWS V14.01,2013-05-08 05:06:00,
2013-05-08 01:11:00,55.9,53.3,29.90,WNW,296,0.0,0.0,91,0.00,,CLR,0.00,VWS V14.01,2013-05-08 05:11:00,
2013-05-08 01:16:00,55.7,53.1,29.90,WNW,296,0.0,0.0,91,0.00,,CLR,0.00,VWS V14.01,2013-05-08 05:16:00,
2013-05-08 01:21:00,55.6,53.0,29.90,WNW,296,0.0,0.0,91,0.00,,CLR,0.00,VWS V14.01,2013-05-08 05:21:00,
2013-05-08 01:26:00,55.5,52.9,29.90,WNW,296,0.0,0.0,91,0.00,,CLR,0.00,VWS V14.01,2013-05-08 05:26:00,
2013-05-08 01:31:00,55.4,52.8,29.89,WNW,296,0.0,0.0,91,0.00,,CLR,0.00,VWS V14.01,2013-05-08 05:31:00,
2013-05-08 01:36:00,55.2,52.9,29.89,WNW,296,0.0,0.0,92,0.00,,CLR,0.00,VWS V14.01,2013-05-08 05:36:00,
2013-05-08 01:41:00,55.0,52.4,29.89,WNW,296,0.0,0.0,91,0.00,,CLR,0.00,VWS V14.01,2013-05-08 05:41:00,
2013-05-08 01:46:00,54.8,52.5,29.89,WNW,296,0.0,0.0,92,0.00,,CLR,0.00,VWS V14.01,2013-05-08 05:46:00,
2013-05-08 01:51:00,54.7,52.1,29.89,WNW,296,0.0,0.0,91,0.00,,CLR,0.00,VWS V14.01,2013-05-08 05:51:00,
2013-05-08 01:56:00,54.6,52.3,29.89,WNW,296,0.0,0.0,92,0.00,,CLR,0.00,VWS V14.01,2013-05-08 05:56:00,
2013-05-08 02:01:00,54.5,52.2,29.89,WNW,296,0.0,0.0,92,0.00,,CLR,0.00,VWS V14.01,2013-05-08 06:01:00,
2013-05-08 02:06:00,54.3,52.0,29.89,WNW,296,0.0,0.0,92,0.00,,CLR,0.00,VWS V14.01,2013-05-08 06:06:00,
2013-05-08 02:11:00,54.3,52.3,29.89,WNW,296,0.0,0.0,93,0.00,,CLR,0.00,VWS V14.01,2013-05-08 06:11:00,
2013-05-08 02:16:00,54.2,52.2,29.88,WNW,296,0.0,0.0,93,0.00,,CLR,0.00,VWS V14.01,2013-05-08 06:16:00,
2013-05-08 02:21:00,54.2,52.2,29.88,WNW,296,0.0,0.0,93,0.00,,CLR,0.00,VWS V14.01,2013-05-08 06:21:00,
2013-05-08 02:26:00,54.1,52.1,29.89,WNW,296,0.0,0.0,93,0.00,,CLR,0.00,VWS V14.01,2013-05-08 06:26:00,
2013-05-08 02:31:00,54.1,52.1,29.89,WNW,296,0.0,0.0,93,0.00,,CLR,0.00,VWS V14.01,2013-05-08 06:31:00,
2013-05-08 02:36:00,54.0,52.0,29.88,WNW,296,0.0,0.0,93,0.00,,CLR,0.00,VWS V14.01,2013-05-08 06:36:00,
2013-05-08 02:41:00,53.9,52.2,29.89,WNW,296,0.0,0.0,94,0.00,,CLR,0.00,VWS V14.01,2013-05-08 06:41:00,
2013-05-08 02:46:00,53.9,52.2,29.88,WNW,296,0.0,0.0,94,0.00,,CLR,0.00,VWS V14.01,2013-05-08 06:46:00,
2013-05-08 02:51:00,53.8,52.1,29.88,WNW,296,0.0,0.0,94,0.00,,CLR,0.00,VWS V14.01,2013-05-08 06:51:00,
2013-05-08 02:56:00,53.7,51.7,29.88,WNW,296,0.0,0.0,93,0.00,,CLR,0.00,VWS V14.01,2013-05-08 06:56:00,
2013-05-08 03:01:00,53.6,51.6,29.88,WNW,296,0.0,0.0,93,0.00,,CLR,0.00,VWS V14.01,2013-05-08 07:01:00,
2013-05-08 03:06:00,53.5,51.8,29.88,WNW,296,0.0,0.0,94,0.00,,CLR,0.00,VWS V14.01,2013-05-08 07:06:00,
2013-05-08 03:11:00,53.3,51.6,29.89,WNW,296,0.0,0.0,94,0.00,,CLR,0.00,VWS V14.01,2013-05-08 07:11:00,
2013-05-08 03:16:00,53.3,51.6,29.89,WNW,296,0.0,0.0,94,0.00,,CLR,0.00,VWS V14.01,2013-05-08 07:16:00,
2013-05-08 03:21:00,53.2,51.5,29.89,WNW,296,0.0,0.0,94,0.00,,CLR,0.00,VWS V14.01,2013-05-08 07:21:00,
2013-05-08 03:26:00,53.1,51.4,29.89,WNW,296,0.0,0.0,94,0.00,,CLR,0.00,VWS V14.01,2013-05-08 07:26:00,
2013-05-08 03:30:00,53.0,51.3,29.89,WNW,296,0.0,0.0,94,0.00,,CLR,0.00,VWS V14.01,2013-05-08 07:30:00,
2013-05-08 03:35:00,52.9,51.2,29.89,WNW,296,0.0,0.0,94,0.00,,CLR,0.00,VWS V14.01,2013-05-08 07:35:00,
2013-05-08 03:41:00,52.9,51.2,29.89,WNW,296,0.0,0.0,94,0.00,,CLR,0.00,VWS V14.01,2013-05-08 07:41:00,
2013-05-08 03:45:00,52.8,51.1,29.89,WNW,296,0.0,0.0,94,0.00,,CLR,0.00,VWS V14.01,2013-05-08 07:45:00,
2013-05-08 03:50:00,52.8,51.1,29.89,WNW,296,0.0,0.0,94,0.00,,CLR,0.00,VWS V14.01,2013-05-08 07:50:00,
2013-05-08 03:55:00,52.7,51.0,29.89,WNW,296,0.0,0.0,94,0.00,,CLR,0.00,VWS V14.01,2013-05-08 07:55:00,
2013-05-08 04:00:00,52.6,51.2,29.89,WNW,296,0.0,0.0,95,0.00,,CLR,0.00,VWS V14.01,2013-05-08 08:00:00,
2013-05-08 04:05:00,52.5,51.1,29.89,WNW,296,0.0,0.0,95,0.00,,CLR,0.00,VWS V14.01,2013-05-08 08:05:00,
2013-05-08 04:10:00,52.4,51.0,29.89,WNW,296,0.0,0.0,95,0.00,,CLR,0.00,VWS V14.01,2013-05-08 08:10:00,
2013-05-08 04:15:00,52.4,51.0,29.89,WNW,296,0.0,0.0,95,0.00,,CLR,0.00,VWS V14.01,2013-05-08 08:15:00,
2013-05-08 04:20:00,52.3,50.6,29.89,WNW,296,0.0,0.0,94,0.00,,CLR,0.00,VWS V14.01,2013-05-08 08:20:00,
2013-05-08 04:25:00,52.0,50.3,29.89,WNW,296,0.0,0.0,94,0.00,,CLR,0.00,VWS V14.01,2013-05-08 08:25:00,
2013-05-08 04:30:00,51.9,50.2,29.89,WNW,296,0.0,0.0,94,0.00,,CLR,0.00,VWS V14.01,2013-05-08 08:30:00,
2013-05-08 04:35:00,51.7,50.0,29.89,WNW,296,0.0,0.0,94,0.00,,CLR,0.00,VWS V14.01,2013-05-08 08:35:00,
2013-05-08 04:40:00,51.7,50.0,29.89,WNW,296,0.0,0.0,94,0.00,,CLR,0.00,VWS V14.01,2013-05-08 08:40:00,
2013-05-08 04:45:00,51.6,50.2,29.89,WNW,296,0.0,0.0,95,0.00,,CLR,0.00,VWS V14.01,2013-05-08 08:45:00,
2013-05-08 04:50:00,51.6,50.2,29.89,WNW,296,0.0,0.0,95,0.00,,CLR,0.00,VWS V14.01,2013-05-08 08:50:00,
2013-05-08 04:55:00,51.5,50.1,29.89,WNW,296,0.0,0.0,95,0.00,,CLR,0.00,VWS V14.01,2013-05-08 08:55:00,
2013-05-08 05:00:00,51.4,50.0,29.89,WNW,296,0.0,0.0,95,0.00,,CLR,0.00,VWS V14.01,2013-05-08 09:00:00,
2013-05-08 05:05:00,51.3,49.9,29.89,WNW,296,0.0,0.0,95,0.00,,CLR,0.00,VWS V14.01,2013-05-08 09:05:00,
2013-05-08 05:10:00,51.2,49.8,29.89,WNW,296,0.0,0.0,95,0.00,,CLR,0.00,VWS V14.01,2013-05-08 09:10:00,
2013-05-08 05:15:00,51.2,49.8,29.89,WNW,296,0.0,0.0,95,0.00,,CLR,0.00,VWS V14.01,2013-05-08 09:15:00,
2013-05-08 05:20:00,51.1,49.7,29.89,WNW,296,0.0,0.0,95,0.00,,CLR,0.00,VWS V14.01,2013-05-08 09:20:00,
2013-05-08 05:25:00,51.0,49.6,29.90,WNW,296,0.0,0.0,95,0.00,,CLR,0.00,VWS V14.01,2013-05-08 09:25:00,
2013-05-08 05:30:00,51.0,49.6,29.90,WNW,296,0.0,0.0,95,0.00,,CLR,0.00,VWS V14.01,2013-05-08 09:30:00,
2013-05-08 05:35:00,50.9,49.5,29.90,WNW,296,0.0,0.0,95,0.00,,CLR,0.00,VWS V14.01,2013-05-08 09:35:00,
2013-05-08 05:40:00,50.9,49.8,29.90,WNW,296,0.0,0.0,96,0.00,,CLR,0.00,VWS V14.01,2013-05-08 09:40:00,
2013-05-08 05:45:00,50.9,49.8,29.90,WNW,296,0.0,0.0,96,0.00,,CLR,0.00,VWS V14.01,2013-05-08 09:45:00,
2013-05-08 05:50:00,50.9,49.8,29.91,WNW,296,0.0,0.0,96,0.00,,CLR,0.00,VWS V14.01,2013-05-08 09:50:00,
2013-05-08 05:55:00,50.9,49.8,29.91,WNW,296,0.0,0.0,96,0.00,,CLR,0.00,VWS V14.01,2013-05-08 09:55:00,
2013-05-08 06:00:00,50.9,49.8,29.91,WNW,296,0.0,0.0,96,0.00,,CLR,0.00,VWS V14.01,2013-05-08 10:00:00,
2013-05-08 06:05:00,50.8,49.4,29.91,WNW,296,0.0,0.0,95,0.00,,CLR,0.00,VWS V14.01,2013-05-08 10:05:00,
2013-05-08 06:10:00,50.8,49.7,29.91,WNW,296,0.0,0.0,96,0.00,,CLR,0.00,VWS V14.01,2013-05-08 10:10:00,
2013-05-08 06:15:00,51.0,49.9,29.90,WNW,296,0.0,0.0,96,0.00,,CLR,0.00,VWS V14.01,2013-05-08 10:15:00,
2013-05-08 06:20:00,51.1,50.0,29.91,WNW,296,0.0,0.0,96,0.00,,CLR,0.00,VWS V14.01,2013-05-08 10:20:00,
2013-05-08 06:25:00,51.3,50.2,29.91,WNW,296,0.0,0.0,96,0.00,,CLR,0.00,VWS V14.01,2013-05-08 10:25:00,
2013-05-08 06:30:00,51.5,50.4,29.92,WNW,296,0.0,0.0,96,0.00,,CLR,0.00,VWS V14.01,2013-05-08 10:30:00,
2013-05-08 06:35:00,51.9,50.8,29.92,WNW,296,0.0,0.0,96,0.00,,CLR,0.00,VWS V14.01,2013-05-08 10:35:00,
2013-05-08 06:40:00,52.2,51.4,29.92,WNW,296,0.0,0.0,97,0.00,,CLR,0.00,VWS V14.01,2013-05-08 10:40:00,
2013-05-08 06:45:00,52.5,51.7,29.92,WNW,296,0.0,0.0,97,0.00,,CLR,0.00,VWS V14.01,2013-05-08 10:45:00,
2013-05-08 06:50:00,52.9,52.1,29.92,WNW,296,0.0,0.0,97,0.00,,CLR,0.00,VWS V14.01,2013-05-08 10:50:00,
2013-05-08 06:55:00,53.2,52.4,29.92,WNW,296,0.0,0.0,97,0.00,,CLR,0.00,VWS V14.01,2013-05-08 10:55:00,
2013-05-08 07:00:00,53.4,52.6,29.93,WNW,296,0.0,0.0,97,0.00,,FEW050,0.00,VWS V14.01,2013-05-08 11:00:00,
2013-05-08 07:05:00,53.6,52.8,29.93,WNW,296,0.0,0.0,97,0.00,,FEW050,0.00,VWS V14.01,2013-05-08 11:05:00,
2013-05-08 07:10:00,53.8,53.0,29.93,WNW,296,0.0,0.0,97,0.00,,FEW050,0.00,VWS V14.01,2013-05-08 11:10:00,
2013-05-08 07:15:00,54.0,53.2,29.93,WNW,296,0.0,0.0,97,0.00,,FEW050,0.00,VWS V14.01,2013-05-08 11:15:00,
2013-05-08 07:20:00,54.1,53.3,29.93,WNW,296,0.0,0.0,97,0.00,,FEW050,0.00,VWS V14.01,2013-05-08 11:20:00,
2013-05-08 07:25:00,54.2,53.4,29.93,WNW,296,0.0,0.0,97,0.00,,FEW050,0.00,VWS V14.01,2013-05-08 11:25:00,
2013-05-08 07:30:00,54.4,53.6,29.93,WNW,296,0.0,0.0,97,0.00,,OVC070,0.00,VWS V14.01,2013-05-08 11:30:00,
2013-05-08 07:35:00,54.5,53.7,29.93,WNW,296,0.0,0.0,97,0.00,,OVC070,0.00,VWS V14.01,2013-05-08 11:35:00,
2013-05-08 07:40:00,54.6,54.0,29.93,WNW,296,0.0,0.0,98,0.00,,OVC070,0.00,VWS V14.01,2013-05-08 11:40:00,
2013-05-08 07:45:00,54.9,54.1,29.93,WNW,296,0.0,0.0,97,0.00,,OVC070,0.00,VWS V14.01,2013-05-08 11:45:00,
2013-05-08 07:50:00,55.0,54.2,29.93,WNW,296,0.0,0.0,97,0.00,,OVC070,0.00,VWS V14.01,2013-05-08 11:50:00,
2013-05-08 07:55:00,55.1,54.5,29.93,WNW,296,0.0,0.0,98,0.00,,OVC070,0.00,VWS V14.01,2013-05-08 11:55:00,
2013-05-08 08:00:00,55.3,54.8,29.93,WNW,296,0.0,0.0,98,0.00,,OVC065,0.00,VWS V14.01,2013-05-08 12:00:00,
2013-05-08 08:05:00,55.5,54.7,29.93,WNW,296,0.0,0.0,97,0.00,,OVC065,0.00,VWS V14.01,2013-05-08 12:05:00,
2013-05-08 08:10:00,55.8,55.0,29.94,WNW,296,0.0,0.0,97,0.00,,OVC065,0.00,VWS V14.01,2013-05-08 12:10:00,
2013-05-08 08:15:00,56.1,55.5,29.94,WNW,296,0.0,0.0,98,0.00,,OVC065,0.00,VWS V14.01,2013-05-08 12:15:00,
2013-05-08 08:20:00,56.3,55.8,29.94,WNW,296,0.0,0.0,98,0.00,,OVC065,0.00,VWS V14.01,2013-05-08 12:20:00,
2013-05-08 08:25:00,56.6,56.0,29.93,WNW,296,0.0,0.0,98,0.00,,OVC065,0.00,VWS V14.01,2013-05-08 12:25:00,
2013-05-08 08:30:00,56.8,56.2,29.93,WNW,296,0.0,0.0,98,0.00,,OVC065,0.00,VWS V14.01,2013-05-08 12:30:00,
2013-05-08 08:35:00,57.1,56.5,29.93,WNW,296,0.0,0.0,98,0.00,,OVC065,0.00,VWS V14.01,2013-05-08 12:35:00,
2013-05-08 08:40:00,57.5,56.7,29.93,WNW,296,0.0,0.0,97,0.00,,OVC041,0.00,VWS V14.01,2013-05-08 12:40:00,
2013-05-08 08:45:00,57.8,57.0,29.93,WNW,296,0.0,0.0,97,0.00,,OVC022,0.00,VWS V14.01,2013-05-08 12:45:00,
2013-05-08 08:50:00,58.2,57.4,29.93,WNW,296,0.0,0.0,97,0.00,,OVC022,0.00,VWS V14.01,2013-05-08 12:50:00,
2013-05-08 08:55:00,58.5,57.4,29.93,WNW,296,0.0,0.0,96,0.00,,OVC022,0.00,VWS V14.01,2013-05-08 12:55:00,
2013-05-08 09:00:00,59.0,57.9,29.93,WNW,296,0.0,0.0,96,0.00,,OVC021,0.00,VWS V14.01,2013-05-08 13:00:00,
2013-05-08 09:05:00,59.1,58.0,29.93,WNW,296,0.0,0.0,96,0.00,,OVC021,0.00,VWS V14.01,2013-05-08 13:05:00,
2013-05-08 09:10:00,59.6,58.2,29.93,WNW,296,0.0,0.0,95,0.00,,OVC021,0.00,VWS V14.01,2013-05-08 13:10:00,
2013-05-08 09:15:00,60.0,58.3,29.93,WNW,296,0.0,0.0,94,0.00,,OVC021,0.00,VWS V14.01,2013-05-08 13:15:00,
2013-05-08 09:20:00,60.5,58.8,29.93,WNW,296,0.0,0.0,94,0.00,,OVC021,0.00,VWS V14.01,2013-05-08 13:20:00,
2013-05-08 09:25:00,61.0,59.0,29.93,ENE,64,0.0,1.0,93,0.00,,OVC021,0.00,VWS V14.01,2013-05-08 13:25:00,
2013-05-08 09:30:00,61.5,59.2,29.93,ENE,66,0.0,1.0,92,0.00,,OVC021,0.00,VWS V14.01,2013-05-08 13:30:00,
2013-05-08 09:35:00,62.1,59.8,29.93,ENE,66,0.0,0.0,92,0.00,,OVC021,0.00,VWS V14.01,2013-05-08 13:35:00,
2013-05-08 09:40:00,62.7,60.0,29.93,ENE,66,0.0,1.0,91,0.00,,OVC021,0.00,VWS V14.01,2013-05-08 13:40:00,
2013-05-08 09:45:00,63.3,60.3,29.93,ENE,66,0.0,0.0,90,0.00,,OVC021,0.00,VWS V14.01,2013-05-08 13:45:00,
2013-05-08 09:50:00,63.9,60.6,29.93,ENE,66,0.0,0.0,89,0.00,,OVC021,0.00,VWS V14.01,2013-05-08 13:50:00,
2013-05-08 09:55:00,64.4,60.8,29.93,ENE,66,2.0,2.0,88,0.00,,OVC021,0.00,VWS V14.01,2013-05-08 13:55:00,
2013-05-08 10:00:00,64.8,61.2,29.93,ENE,66,0.0,0.0,88,0.00,,OVC006,0.00,VWS V14.01,2013-05-08 14:00:00,
2013-05-08 10:05:00,65.3,61.3,29.93,ENE,58,0.0,0.0,87,0.00,,OVC006,0.00,VWS V14.01,2013-05-08 14:05:00,
2013-05-08 10:10:00,65.8,61.5,29.93,ENE,58,0.0,1.0,86,0.00,,OVC006,0.00,VWS V14.01,2013-05-08 14:10:00,
2013-05-08 10:15:00,66.5,61.9,29.93,ENE,58,0.0,0.0,85,0.00,,OVC006,0.00,VWS V14.01,2013-05-08 14:15:00,
2013-05-08 10:20:00,67.0,62.0,29.93,ENE,58,1.0,2.0,84,0.00,,OVC006,0.00,VWS V14.01,2013-05-08 14:20:00,
2013-05-08 10:25:00,67.2,61.9,29.93,ENE,58,0.0,0.0,83,0.00,,OVC006,0.00,VWS V14.01,2013-05-08 14:25:00,
2013-05-08 10:30:00,67.6,62.3,29.93,ENE,71,0.0,2.0,83,0.00,,OVC010,0.00,VWS V14.01,2013-05-08 14:30:00,
2013-05-08 10:35:00,68.1,62.4,29.93,ENE,70,0.0,0.0,82,0.00,,OVC010,0.00,VWS V14.01,2013-05-08 14:35:00,
2013-05-08 10:40:00,68.7,62.6,29.93,ENE,71,3.0,3.0,81,0.00,,OVC010,0.00,VWS V14.01,2013-05-08 14:40:00,
2013-05-08 10:45:00,68.9,62.8,29.93,ENE,77,0.0,1.0,81,0.00,,OVC010,0.00,VWS V14.01,2013-05-08 14:45:00,
2013-05-08 10:50:00,69.1,62.7,29.92,East,79,2.0,3.0,80,0.00,,OVC010,0.00,VWS V14.01,2013-05-08 14:50:00,
2013-05-08 10:55:00,69.3,62.5,29.92,East,80,0.0,1.0,79,0.00,,OVC010,0.00,VWS V14.01,2013-05-08 14:55:00,
2013-05-08 11:00:00,69.4,62.6,29.92,East,82,0.0,2.0,79,0.00,,OVC013,0.00,VWS V14.01,2013-05-08 15:00:00,
2013-05-08 11:05:00,69.7,62.5,29.92,ESE,103,0.0,0.0,78,0.00,,OVC013,0.00,VWS V14.01,2013-05-08 15:05:00,
2013-05-08 11:10:00,69.9,62.4,29.92,ESE,103,0.0,0.0,77,0.00,,OVC013,0.00,VWS V14.01,2013-05-08 15:10:00,
2013-05-08 11:15:00,70.1,62.2,29.92,East,90,0.0,1.0,76,0.00,,OVC013,0.00,VWS V14.01,2013-05-08 15:15:00,
2013-05-08 11:20:00,70.4,62.8,29.92,East,90,2.0,2.0,77,0.00,,OVC013,0.00,VWS V14.01,2013-05-08 15:20:00,
2013-05-08 11:25:00,71.1,62.8,29.91,ENE,78,1.0,4.0,75,0.00,,OVC065,0.00,VWS V14.01,2013-05-08 15:25:00,
2013-05-08 11:30:00,71.6,62.1,29.91,East,88,0.0,0.0,72,0.00,,OVC065,0.00,VWS V14.01,2013-05-08 15:30:00,
2013-05-08 11:35:00,71.6,62.1,29.91,East,88,0.0,1.0,72,0.00,,OVC065,0.00,VWS V14.01,2013-05-08 15:35:00,
2013-05-08 11:40:00,71.4,61.9,29.91,East,88,0.0,2.0,72,0.00,,OVC065,0.00,VWS V14.01,2013-05-08 15:40:00,
2013-05-08 11:45:00,71.1,64.3,29.91,East,88,1.0,2.0,79,0.00,,OVC065,0.00,VWS V14.01,2013-05-08 15:45:00,
2013-05-08 11:50:00,70.1,64.4,29.90,East,90,0.0,0.0,82,0.00,,OVC065,0.00,VWS V14.01,2013-05-08 15:50:00,
2013-05-08 11:55:00,69.3,63.9,29.90,East,90,0.0,0.0,83,0.00,,OVC065,0.00,VWS V14.01,2013-05-08 15:55:00,
2013-05-08 12:00:00,68.6,64.2,29.90,East,90,0.0,0.0,86,0.00,,OVC070,0.00,VWS V14.01,2013-05-08 16:00:00,
2013-05-08 12:05:00,68.4,64.7,29.90,East,89,0.0,1.0,88,0.00,,OVC070,0.00,VWS V14.01,2013-05-08 16:05:00,
2013-05-08 12:10:00,68.6,65.2,29.89,East,89,0.0,2.0,89,0.00,,OVC070,0.00,VWS V14.01,2013-05-08 16:10:00,
2013-05-08 12:15:00,69.1,65.4,29.89,East,89,1.0,1.0,88,0.00,,OVC070,0.00,VWS V14.01,2013-05-08 16:15:00,
2013-05-08 12:20:00,69.6,64.9,29.89,East,80,0.0,1.0,85,0.00,,OVC070,0.00,VWS V14.01,2013-05-08 16:20:00,
2013-05-08 12:25:00,69.9,63.8,29.89,East,80,0.0,0.0,81,0.00,,OVC070,0.00,VWS V14.01,2013-05-08 16:25:00,
2013-05-08 12:30:00,70.0,63.5,29.88,East,80,0.0,1.0,80,0.00,,OVC070,0.00,VWS V14.01,2013-05-08 16:30:00,
2013-05-08 12:35:00,69.8,63.0,29.88,ENE,73,0.0,0.0,79,0.00,,OVC070,0.00,VWS V14.01,2013-05-08 16:35:00,
2013-05-08 12:40:00,69.5,63.8,29.90,ESE,123,0.0,1.0,82,0.01,,OVC070,0.01,VWS V14.01,2013-05-08 16:40:00,
2013-05-08 12:45:00,68.3,63.6,29.90,SSE,149,1.0,1.0,85,0.03,,OVC070,0.03,VWS V14.01,2013-05-08 16:45:00,
2013-05-08 12:50:00,67.2,63.2,29.90,SSW,192,0.0,0.0,87,0.03,,OVC070,0.03,VWS V14.01,2013-05-08 16:50:00,
2013-05-08 12:55:00,66.5,63.5,29.90,SSW,192,0.0,0.0,90,0.03,,OVC070,0.03,VWS V14.01,2013-05-08 16:55:00,
2013-05-08 13:00:00,66.1,63.4,29.90,SSW,192,0.0,0.0,91,0.03,,OVC075,0.03,VWS V14.01,2013-05-08 17:00:00,
2013-05-08 13:05:00,66.1,63.7,29.89,SSW,192,0.0,0.0,92,0.03,,OVC075,0.03,VWS V14.01,2013-05-08 17:05:00,
2013-05-08 13:10:00,66.3,64.2,29.89,SSW,192,0.0,1.0,93,0.03,,OVC075,0.03,VWS V14.01,2013-05-08 17:10:00,
2013-05-08 13:15:00,66.6,64.2,29.89,SSW,199,0.0,0.0,92,0.03,,OVC075,0.03,VWS V14.01,2013-05-08 17:15:00,
2013-05-08 13:20:00,67.1,65.3,29.89,SE,140,0.0,0.0,94,0.03,,OVC075,0.03,VWS V14.01,2013-05-08 17:20:00,
2013-05-08 13:25:00,67.4,65.3,29.89,ESE,110,3.0,3.0,93,0.03,,OVC075,0.03,VWS V14.01,2013-05-08 17:25:00,
2013-05-08 13:30:00,67.7,65.3,29.88,East,92,0.0,1.0,92,0.03,,OVC075,0.03,VWS V14.01,2013-05-08 17:30:00,
2013-05-08 13:35:00,67.9,65.5,29.88,ENE,63,0.0,0.0,92,0.03,,OVC075,0.03,VWS V14.01,2013-05-08 17:35:00,
2013-05-08 13:40:00,68.0,65.3,29.88,ENE,78,0.0,0.0,91,0.02,,OVC075,0.03,VWS V14.01,2013-05-08 17:40:00,
2013-05-08 13:45:00,68.0,64.6,29.88,ENE,77,0.0,0.0,89,0.01,,OVC075,0.03,VWS V14.01,2013-05-08 17:45:00,
2013-05-08 13:50:00,68.1,65.4,29.87,ENE,77,0.0,1.0,91,0.00,,OVC075,0.03,VWS V14.01,2013-05-08 17:50:00,
2013-05-08 13:55:00,68.5,65.8,29.87,ENE,77,0.0,0.0,91,0.00,,OVC075,0.03,VWS V14.01,2013-05-08 17:55:00,
2013-05-08 14:00:00,68.8,64.8,29.87,East,86,0.0,2.0,87,0.00,,BKN039,0.03,VWS V14.01,2013-05-08 18:00:00,
2013-05-08 14:05:00,68.9,64.6,29.87,East,92,0.0,1.0,86,0.00,,BKN039,0.03,VWS V14.01,2013-05-08 18:05:00,
2013-05-08 14:10:00,68.8,64.1,29.86,East,89,0.0,0.0,85,0.00,,BKN039,0.03,VWS V14.01,2013-05-08 18:10:00,
2013-05-08 14:15:00,68.6,64.2,29.86,East,94,2.0,2.0,86,0.00,,BKN039,0.03,VWS V14.01,2013-05-08 18:15:00,
2013-05-08 14:20:00,68.3,63.3,29.86,East,96,0.0,0.0,84,0.00,,RA,0.03,VWS V14.01,2013-05-08 18:20:00,
2013-05-08 14:25:00,67.9,63.2,29.86,ESE,107,0.0,1.0,85,0.00,,RA,0.03,VWS V14.01,2013-05-08 18:25:00,
2013-05-08 14:30:00,67.5,62.5,29.86,ESE,106,0.0,0.0,84,0.00,,RA,0.03,VWS V14.01,2013-05-08 18:30:00,
2013-05-08 14:35:00,67.4,63.4,29.86,ESE,106,0.0,0.0,87,0.00,,RA,0.03,VWS V14.01,2013-05-08 18:35:00,
2013-05-08 14:40:00,67.2,63.2,29.86,South,178,0.0,0.0,87,0.00,,RA,0.03,VWS V14.01,2013-05-08 18:40:00,
2013-05-08 14:45:00,67.1,63.1,29.85,ESE,107,1.0,1.0,87,0.00,,RA,0.03,VWS V14.01,2013-05-08 18:45:00,
2013-05-08 14:50:00,67.1,61.8,29.85,ESE,107,0.0,3.0,83,0.00,,RA,0.03,VWS V14.01,2013-05-08 18:50:00,
2013-05-08 14:55:00,67.3,61.3,29.85,East,83,2.0,3.0,81,0.00,,RA,0.03,VWS V14.01,2013-05-08 18:55:00,
2013-05-08 15:00:00,67.3,62.0,29.86,ESE,113,2.0,2.0,83,0.00,,BKN055,0.03,VWS V14.01,2013-05-08 19:00:00,
2013-05-08 15:05:00,66.6,62.3,29.85,South,184,0.0,0.0,86,0.01,,BKN055,0.04,VWS V14.01,2013-05-08 19:05:00,
2013-05-08 15:10:00,66.0,62.3,29.85,SE,135,0.0,0.0,88,0.01,,BKN055,0.04,VWS V14.01,2013-05-08 19:10:00,
2013-05-08 15:15:00,65.7,62.4,29.85,SE,135,0.0,0.0,89,0.01,,BKN055,0.04,VWS V14.01,2013-05-08 19:15:00,
2013-05-08 15:20:00,65.6,62.6,29.84,SE,135,0.0,0.0,90,0.01,,BKN055,0.04,VWS V14.01,2013-05-08 19:20:00,
2013-05-08 15:25:00,65.5,62.8,29.84,SE,138,0.0,0.0,91,0.01,,BKN055,0.04,VWS V14.01,2013-05-08 19:25:00,
2013-05-08 15:30:00,65.5,61.9,29.84,SE,138,0.0,0.0,88,0.01,,BKN055,0.04,VWS V14.01,2013-05-08 19:30:00,
2013-05-08 15:35:00,65.7,62.4,29.84,SE,138,0.0,0.0,89,0.01,,BKN055,0.04,VWS V14.01,2013-05-08 19:35:00,
2013-05-08 15:40:00,66.0,62.7,29.84,SE,138,0.0,1.0,89,0.01,,BKN055,0.04,VWS V14.01,2013-05-08 19:40:00,
2013-05-08 15:45:00,66.4,61.8,29.84,East,92,0.0,2.0,85,0.01,,BKN055,0.04,VWS V14.01,2013-05-08 19:45:00,
2013-05-08 15:50:00,66.8,62.2,29.84,East,98,0.0,0.0,85,0.01,,BKN055,0.04,VWS V14.01,2013-05-08 19:50:00,
2013-05-08 15:55:00,67.0,62.0,29.84,SE,144,1.0,3.0,84,0.01,,BKN055,0.04,VWS V14.01,2013-05-08 19:55:00,
2013-05-08 16:00:00,67.2,61.9,29.84,SE,129,0.0,0.0,83,0.01,,RA,0.04,VWS V14.01,2013-05-08 20:00:00,
2013-05-08 16:05:00,67.3,62.3,29.84,ESE,121,0.0,3.0,84,0.00,,-RA,0.04,VWS V14.01,2013-05-08 20:05:00,
2013-05-08 16:10:00,67.2,61.5,29.84,ESE,103,2.0,3.0,82,0.00,,-RA,0.04,VWS V14.01,2013-05-08 20:10:00,
2013-05-08 16:15:00,67.0,61.3,29.84,East,86,1.0,1.0,82,0.00,,-RA,0.04,VWS V14.01,2013-05-08 20:15:00,
2013-05-08 16:20:00,66.7,61.7,29.84,ESE,103,0.0,0.0,84,0.00,,-RA,0.04,VWS V14.01,2013-05-08 20:20:00,
2013-05-08 16:25:00,66.7,61.7,29.84,ESE,121,2.0,2.0,84,0.00,,-RA,0.04,VWS V14.01,2013-05-08 20:25:00,
2013-05-08 16:30:00,66.9,62.6,29.84,ESE,102,0.0,2.0,86,0.00,,-RA,0.04,VWS V14.01,2013-05-08 20:30:00,
2013-05-08 16:35:00,67.1,62.1,29.84,ESE,103,0.0,0.0,84,0.00,,OVC041,0.04,VWS V14.01,2013-05-08 20:35:00,
2013-05-08 16:40:00,67.2,61.9,29.83,South,175,0.0,3.0,83,0.00,,OVC041,0.04,VWS V14.01,2013-05-08 20:40:00,
2013-05-08 16:45:00,67.2,61.9,29.83,East,95,0.0,1.0,83,0.00,,OVC041,0.04,VWS V14.01,2013-05-08 20:45:00,
2013-05-08 16:50:00,67.2,62.2,29.83,ESE,111,0.0,1.0,84,0.00,,OVC041,0.04,VWS V14.01,2013-05-08 20:50:00,
2013-05-08 16:55:00,67.2,61.5,29.83,ENE,74,0.0,3.0,82,0.00,,OVC041,0.04,VWS V14.01,2013-05-08 20:55:00,
2013-05-08 17:00:00,67.4,61.7,29.83,East,88,0.0,3.0,82,0.00,,OVC028,0.04,VWS V14.01,2013-05-08 21:00:00,
2013-05-08 17:05:00,67.6,62.3,29.83,East,100,0.0,0.0,83,0.00,,OVC028,0.04,VWS V14.01,2013-05-08 21:05:00,
2013-05-08 17:10:00,67.7,62.0,29.82,East,90,0.0,1.0,82,0.00,,OVC028,0.04,VWS V14.01,2013-05-08 21:10:00,
2013-05-08 17:15:00,67.9,62.5,29.82,East,101,1.0,2.0,83,0.00,,OVC028,0.04,VWS V14.01,2013-05-08 21:15:00,
2013-05-08 17:20:00,68.0,62.7,29.82,East,101,0.0,0.0,83,0.00,,-RA,0.04,VWS V14.01,2013-05-08 21:20:00,
2013-05-08 17:25:00,67.9,63.2,29.82,ESE,109,0.0,0.0,85,0.00,,-RA,0.04,VWS V14.01,2013-05-08 21:25:00,
2013-05-08 17:30:00,67.2,63.5,29.82,SW,224,0.0,0.0,88,0.01,,-RA,0.05,VWS V14.01,2013-05-08 21:30:00,
2013-05-08 17:35:00,66.5,62.8,29.82,East,86,2.0,4.0,88,0.01,, +RA,0.05,VWS V14.01,2013-05-08 21:35:00,
2013-05-08 17:40:00,65.7,63.0,29.83,East,97,1.0,2.0,91,0.02,,-RA,0.06,VWS V14.01,2013-05-08 21:40:00,
2013-05-08 17:45:00,65.0,62.9,29.82,SE,137,0.0,0.0,93,0.08,,-RA,0.12,VWS V14.01,2013-05-08 21:45:00,
2013-05-08 17:50:00,64.5,62.7,29.82,SE,144,0.0,0.0,94,0.08,,-RA,0.12,VWS V14.01,2013-05-08 21:50:00,
2013-05-08 17:55:00,64.2,62.7,29.82,WSW,247,0.0,1.0,95,0.08,,RA,0.12,VWS V14.01,2013-05-08 21:55:00,
2013-05-08 18:00:00,63.9,62.4,29.82,WSW,240,1.0,3.0,95,0.08,,-RA,0.12,VWS V14.01,2013-05-08 22:00:00,
2013-05-08 18:05:00,63.7,62.2,29.82,East,97,0.0,1.0,95,0.09,,-RA,0.13,VWS V14.01,2013-05-08 22:05:00,
2013-05-08 18:10:00,63.5,62.3,29.82,SSE,161,0.0,1.0,96,0.09,,-RA,0.13,VWS V14.01,2013-05-08 22:10:00,
2013-05-08 18:15:00,63.5,62.3,29.82,ENE,76,0.0,0.0,96,0.09,,-RA,0.13,VWS V14.01,2013-05-08 22:15:00,
2013-05-08 18:20:00,63.5,62.3,29.82,ENE,76,0.0,0.0,96,0.09,,-RA,0.13,VWS V14.01,2013-05-08 22:20:00,
2013-05-08 18:25:00,63.5,62.3,29.82,ENE,76,0.0,0.0,96,0.09,,-RA,0.13,VWS V14.01,2013-05-08 22:25:00,
2013-05-08 18:30:00,63.6,62.4,29.82,ENE,76,0.0,0.0,96,0.08,,-RA,0.13,VWS V14.01,2013-05-08 22:30:00,
2013-05-08 18:35:00,63.6,62.7,29.81,ENE,76,0.0,0.0,97,0.08,,-RA,0.13,VWS V14.01,2013-05-08 22:35:00,
2013-05-08 18:40:00,63.7,62.8,29.81,ENE,75,0.0,0.0,97,0.07,,-RA,0.13,VWS V14.01,2013-05-08 22:40:00,
2013-05-08 18:45:00,63.6,62.7,29.82,ENE,75,0.0,0.0,97,0.01,,-RA,0.13,VWS V14.01,2013-05-08 22:45:00,
2013-05-08 18:50:00,63.6,62.7,29.81,NNW,336,0.0,1.0,97,0.01,,-RA,0.13,VWS V14.01,2013-05-08 22:50:00,
2013-05-08 18:55:00,63.4,62.5,29.81,NE,42,0.0,1.0,97,0.01,,-RA,0.13,VWS V14.01,2013-05-08 22:55:00,
2013-05-08 19:00:00,63.3,62.4,29.81,NE,42,0.0,0.0,97,0.02,,-RA,0.14,VWS V14.01,2013-05-08 23:00:00,
2013-05-08 19:05:00,63.2,62.3,29.81,NE,42,0.0,0.0,97,0.02,,-RA,0.15,VWS V14.01,2013-05-08 23:05:00,
2013-05-08 19:10:00,63.1,62.2,29.81,NE,42,0.0,0.0,97,0.03,,-RA,0.16,VWS V14.01,2013-05-08 23:10:00,
2013-05-08 19:15:00,63.1,62.2,29.81,NE,42,0.0,0.0,97,0.03,,RA,0.16,VWS V14.01,2013-05-08 23:15:00,
2013-05-08 19:20:00,63.0,62.1,29.81,NE,42,0.0,0.0,97,0.03,,RA,0.16,VWS V14.01,2013-05-08 23:20:00,
2013-05-08 19:25:00,63.0,62.1,29.81,NE,42,0.0,0.0,97,0.03,,-RA,0.16,VWS V14.01,2013-05-08 23:25:00,
2013-05-08 19:30:00,63.0,62.1,29.81,East,99,0.0,2.0,97,0.03,,-RA,0.16,VWS V14.01,2013-05-08 23:30:00,
2013-05-08 19:35:00,62.9,62.0,29.81,East,100,0.0,0.0,97,0.03,,-RA,0.16,VWS V14.01,2013-05-08 23:35:00,
2013-05-08 19:40:00,62.9,62.0,29.81,East,100,0.0,0.0,97,0.03,,-RA,0.16,VWS V14.01,2013-05-08 23:40:00,
2013-05-08 19:45:00,62.8,61.9,29.81,East,100,0.0,0.0,97,0.03,,-RA,0.16,VWS V14.01,2013-05-08 23:45:00,
2013-05-08 19:50:00,62.7,61.8,29.81,East,100,0.0,0.0,97,0.03,,-RA,0.16,VWS V14.01,2013-05-08 23:50:00,
2013-05-08 19:55:00,62.7,61.8,29.81,East,100,0.0,0.0,97,0.03,,-RA,0.16,VWS V14.01,2013-05-08 23:55:00,
2013-05-08 20:00:00,62.7,61.8,29.81,East,100,0.0,0.0,97,0.03,,,0.16,VWS V14.01,2013-05-09 00:00:00,
2013-05-08 20:05:00,62.6,61.7,29.80,East,100,0.0,0.0,97,0.02,,,0.17,VWS V14.01,2013-05-09 00:05:00,
2013-05-08 20:10:00,62.6,61.7,29.81,East,100,0.0,0.0,97,0.01,,,0.17,VWS V14.01,2013-05-09 00:10:00,
2013-05-08 20:15:00,62.6,61.7,29.80,East,100,0.0,0.0,97,0.01,,,0.17,VWS V14.01,2013-05-09 00:15:00,
2013-05-08 20:20:00,62.5,61.6,29.80,East,100,0.0,0.0,97,0.02,,,0.18,VWS V14.01,2013-05-09 00:20:00,
2013-05-08 20:25:00,62.5,61.6,29.80,East,100,0.0,0.0,97,0.02,,,0.18,VWS V14.01,2013-05-09 00:25:00,
2013-05-08 20:30:00,62.4,61.8,29.81,East,100,0.0,0.0,98,0.02,,,0.18,VWS V14.01,2013-05-09 00:30:00,
2013-05-08 20:35:00,62.3,61.7,29.81,East,100,0.0,0.0,98,0.03,,,0.19,VWS V14.01,2013-05-09 00:35:00,
2013-05-08 20:40:00,62.3,61.7,29.81,East,100,0.0,0.0,98,0.03,,,0.19,VWS V14.01,2013-05-09 00:40:00,
2013-05-08 20:45:00,62.3,61.7,29.81,East,100,0.0,0.0,98,0.03,,,0.19,VWS V14.01,2013-05-09 00:45:00,
2013-05-08 20:50:00,62.2,61.6,29.81,East,100,0.0,0.0,98,0.03,,,0.19,VWS V14.01,2013-05-09 00:50:00,
2013-05-08 20:55:00,62.2,61.6,29.81,East,100,0.0,0.0,98,0.03,,,0.19,VWS V14.01,2013-05-09 00:55:00,
2013-05-08 21:00:00,62.2,61.6,29.81,East,100,0.0,0.0,98,0.03,,-RA,0.19,VWS V14.01,2013-05-09 01:00:00,
2013-05-08 21:05:00,62.1,61.5,29.81,East,100,0.0,0.0,98,0.03,,-RA,0.19,VWS V14.01,2013-05-09 01:05:00,
2013-05-08 21:10:00,62.1,61.5,29.81,East,100,0.0,0.0,98,0.02,,-RA,0.19,VWS V14.01,2013-05-09 01:10:00,
2013-05-08 21:15:00,62.1,61.5,29.81,East,100,0.0,0.0,98,0.02,,-RA,0.19,VWS V14.01,2013-05-09 01:15:00,
2013-05-08 21:20:00,62.1,61.5,29.81,East,100,0.0,0.0,98,0.01,,-RA,0.19,VWS V14.01,2013-05-09 01:20:00,
2013-05-08 21:25:00,62.1,61.5,29.80,East,100,0.0,0.0,98,0.01,,-RA,0.19,VWS V14.01,2013-05-09 01:25:00,
2013-05-08 21:30:00,62.1,61.5,29.80,East,100,0.0,0.0,98,0.01,,-RA,0.19,VWS V14.01,2013-05-09 01:30:00,
2013-05-08 21:35:00,62.0,61.4,29.80,East,100,0.0,0.0,98,0.00,,-RA,0.19,VWS V14.01,2013-05-09 01:35:00,
2013-05-08 21:40:00,62.0,61.4,29.80,East,100,0.0,0.0,98,0.00,,-RA,0.19,VWS V14.01,2013-05-09 01:40:00,
2013-05-08 21:45:00,61.9,61.3,29.80,East,100,0.0,0.0,98,0.00,,-RA,0.19,VWS V14.01,2013-05-09 01:45:00,
2013-05-08 21:50:00,61.8,61.2,29.80,East,100,0.0,0.0,98,0.00,,-RA,0.19,VWS V14.01,2013-05-09 01:50:00,
2013-05-08 21:55:00,61.9,61.3,29.80,East,100,0.0,0.0,98,0.00,,-RA,0.19,VWS V14.01,2013-05-09 01:55:00,
2013-05-08 22:00:00,61.9,61.3,29.80,East,100,0.0,0.0,98,0.00,,OVC002,0.19,VWS V14.01,2013-05-09 02:00:00,
2013-05-08 22:04:00,61.8,61.2,29.80,East,100,0.0,0.0,98,0.00,,OVC002,0.19,VWS V14.01,2013-05-09 02:04:00,
2013-05-08 22:09:00,61.8,61.2,29.80,East,100,0.0,0.0,98,0.00,,OVC002,0.19,VWS V14.01,2013-05-09 02:09:00,
2013-05-08 22:14:00,61.8,61.2,29.80,East,100,0.0,0.0,98,0.00,,OVC002,0.19,VWS V14.01,2013-05-09 02:14:00,
2013-05-08 22:19:00,61.7,61.1,29.80,East,100,0.0,0.0,98,0.00,,-RA,0.19,VWS V14.01,2013-05-09 02:19:00,
2013-05-08 22:24:00,61.6,61.0,29.80,East,100,0.0,0.0,98,0.00,,-RA,0.19,VWS V14.01,2013-05-09 02:24:00,
2013-05-08 22:29:00,61.7,61.1,29.80,East,100,0.0,0.0,98,0.00,,-RA,0.19,VWS V14.01,2013-05-09 02:29:00,
2013-05-08 22:34:00,61.6,61.0,29.80,East,100,0.0,0.0,98,0.00,,-RA,0.19,VWS V14.01,2013-05-09 02:34:00,
2013-05-08 22:39:00,61.5,60.9,29.80,East,101,0.0,0.0,98,0.00,,-RA,0.19,VWS V14.01,2013-05-09 02:39:00,
2013-05-08 22:44:00,61.4,60.8,29.80,East,101,0.0,0.0,98,0.00,,-RA,0.19,VWS V14.01,2013-05-09 02:44:00,
2013-05-08 22:49:00,61.4,60.8,29.80,East,101,0.0,0.0,98,0.00,,-RA,0.19,VWS V14.01,2013-05-09 02:49:00,
2013-05-08 22:54:00,61.3,60.7,29.80,East,101,0.0,0.0,98,0.00,,-RA,0.19,VWS V14.01,2013-05-09 02:54:00,
2013-05-08 22:59:00,61.3,60.7,29.80,East,101,0.0,0.0,98,0.00,,,0.19,VWS V14.01,2013-05-09 02:59:00,
2013-05-08 23:04:00,61.3,60.7,29.80,East,101,0.0,0.0,98,0.00,,,0.19,VWS V14.01,2013-05-09 03:04:00,
2013-05-08 23:09:00,61.3,60.7,29.79,East,101,0.0,0.0,98,0.00,,,0.19,VWS V14.01,2013-05-09 03:09:00,
2013-05-08 23:14:00,61.2,60.6,29.79,East,101,0.0,0.0,98,0.00,,,0.19,VWS V14.01,2013-05-09 03:14:00,
2013-05-08 23:19:00,61.2,60.6,29.78,East,101,0.0,0.0,98,0.00,,,0.19,VWS V14.01,2013-05-09 03:19:00,
2013-05-08 23:24:00,61.2,60.6,29.79,East,101,0.0,0.0,98,0.00,,,0.19,VWS V14.01,2013-05-09 03:24:00,
2013-05-08 23:29:00,61.1,60.5,29.78,East,101,0.0,0.0,98,0.00,,,0.19,VWS V14.01,2013-05-09 03:29:00,
2013-05-08 23:34:00,61.1,60.5,29.79,East,101,0.0,0.0,98,0.00,,,0.19,VWS V14.01,2013-05-09 03:34:00,
2013-05-08 23:39:00,61.0,60.4,29.78,East,101,0.0,0.0,98,0.00,,,0.19,VWS V14.01,2013-05-09 03:39:00,
2013-05-08 23:44:00,61.0,60.4,29.79,East,101,0.0,0.0,98,0.00,,,0.19,VWS V14.01,2013-05-09 03:44:00,
2013-05-08 23:49:00,60.9,60.3,29.79,East,101,0.0,0.0,98,0.00,,,0.19,VWS V14.01,2013-05-09 03:49:00,
2013-05-08 23:54:00,60.9,60.3,29.79,East,101,0.0,0.0,98,0.00,,,0.19,VWS V14.01,2013-05-09 03:54:00,
2013-05-08 23:59:00,61.0,60.4,29.79,East,101,0.0,0.0,98,0.00,,,0.19,VWS V14.01,2013-05-09 03:59:00,